Starlink 31256

operational
NORAD ID: 59161 Int'l Des: 2024-044 Owner: SPXS Country: US Constellation: starlink
LEOCIRCULAR

Über Starlink 31256

Beschreibung wird geladen...

Live-Position

3D-Globus wird geladen...

Nächste Überflüge

Höhenverlauf

Altitude vs Time

uPlot chart will show altitude changes over time

Zweizeiliger Elementsatz

1 59161U 24044K 25258.02590305 -.00000857 00000-0 -21631-4 0 9991
2 59161 42.9994 18.7823 0000491 308.6614 51.4193 15.27570595 86735
Epoch: 15. Sept. 2025 • Age: 12 hours

Aktueller Status

Höhe 493.3 km
Geschwindigkeit 7.62 km/s
Subsatellitenpunkt -36.37°S, 135.68°E
Startdatum 4. März 2024
Alter 1.5 years
Typ internet

Technische Details

Klassifizierung Payload
Masse 730.00 kg
Trockenmasse 700.00 kg
Gesamtmasse 730.00 kg
Länge 0.30 m
Durchmesser 4.10 m
Spannweite 29.00 m
Form Box + pan
Hersteller SPXS
Bus-Typ Starlink V2M
Phasenstatus In Orbit
Besitzer/Staat SPXS/US

Große Konstellationen

Loading constellations...